Weather History for Oakdale, LA

Change the Weather History Date:

Monday, May 5, 2014

  Actual Average (KPOE) Record (KPOE)
Temperature  
Mean Temperature 66 °F -  
Max Temperature 82 °F 80 °F 91 °F (2002)
Min Temperature 49 °F 61 °F 44 °F (2013)
Growing Degree Days 16 (Base 50)    
Moisture  
Dew Point 57 °F    
Average Humidity 74    
Maximum Humidity 97    
Minimum Humidity 45    
Precipitation  
Precipitation 0.00 in - - ()
Sea Level Pressure  
Sea Level Pressure 30.02 in    
Wind  
Wind Speed 3 mph (SSW)    
Max Wind Speed 13 mph    
Max Gust Speed 21 mph    
Visibility 8 miles    
Events Fog    
Averages and records for this station are not official NWS values.
T = Trace of Precipitation, MM = Missing Value Source: NWS Daily Summary

Daily Weather History Graph

Daily Weather History Graph

Search for Another Location

Airport:

Trip Planner

Search our weather history database for the weather conditions in past years. The results will help you decide how hot, cold, wet, or windy it might be!

Date:

Astronomy

May. 05, 2014 Rise Set
Actual Time 6:23 AM CDT 7:52 PM CDT
Civil Twilight 5:57 AM CDT 8:17 PM CDT
Nautical Twilight 5:26 AM CDT 8:48 PM CDT
Astronomical Twilight 4:54 AM CDT 9:21 PM CDT
Moon 11:42 AM CDT (5/5) 12:37 AM CDT (5/5)
Length of Visible Light 14h 20m
Length of Day
13h 28m
Waxing Crescent, 37% of the Moon is Illuminated
May 5
Waxing Crescent
May 6
First Quarter
May 14
Full
May 21
Last Quarter
May 28
New

Hourly Weather History & Observations

Time (CDT) Temp. Heat Index Dew Point Humidity Pressure Visibility Wind Dir Wind Speed Gust Speed Precip Events Conditions
12:15 AM 54.9 °F - 53.4 °F 95% 30.09 in 10.0 mi Calm Calm - N/A   Clear
12:55 AM 53.8 °F - 52.2 °F 94% 30.09 in 10.0 mi Calm Calm - N/A   Clear
1:15 AM 53.8 °F - 52.3 °F 95% 30.09 in 10.0 mi Calm Calm - N/A   Clear
1:35 AM 52.0 °F - 50.4 °F 94% 30.09 in 7.0 mi Calm Calm - N/A   Clear
1:55 AM 51.8 °F - 50.2 °F 94% 30.08 in 10.0 mi Calm Calm - N/A   Clear
2:15 AM 50.9 °F - 49.6 °F 95% 30.07 in 10.0 mi Calm Calm - N/A   Clear
2:35 AM 50.4 °F - 49.1 °F 95% 30.06 in 10.0 mi Calm Calm - N/A   Clear
4:55 AM 49.1 °F - 48.2 °F 97% 30.06 in 0.5 mi Calm Calm - N/A Fog Fog
5:15 AM 49.1 °F - 47.8 °F 95% 30.05 in 0.8 mi Calm Calm - N/A   Overcast
5:35 AM 49.1 °F - 47.8 °F 95% 30.05 in 0.2 mi Calm Calm - N/A Fog Fog
5:55 AM 49.1 °F - 48.2 °F 97% 30.05 in 0.2 mi Calm Calm - N/A Fog Fog
6:15 AM 49.1 °F - 48.2 °F 97% 30.05 in 0.2 mi Calm Calm - N/A Fog Fog
6:35 AM 49.1 °F - 48.2 °F 97% 30.05 in 0.2 mi Calm Calm - N/A Fog Fog
6:55 AM 49.6 °F - 48.7 °F 97% 30.05 in 0.2 mi Calm Calm - N/A Fog Fog
7:15 AM 51.6 °F - 50.7 °F 97% 30.05 in 0.2 mi Calm Calm - N/A Fog Fog
7:35 AM 54.7 °F - 53.8 °F 97% 30.06 in 0.2 mi Calm Calm - N/A Fog Fog
7:55 AM 59.4 °F - 58.5 °F 97% 30.06 in 0.2 mi Calm Calm - N/A Fog Fog
8:15 AM 62.8 °F - 61.9 °F 97% 30.07 in 1.0 mi Calm Calm - N/A   Mostly Cloudy
8:35 AM 65.3 °F - 63.5 °F 94% 30.07 in 10.0 mi South 4.6 mph - N/A   Scattered Clouds
8:55 AM 67.5 °F - 64.0 °F 89% 30.07 in 10.0 mi SSW 5.8 mph - N/A   Clear
9:15 AM 70.2 °F - 65.3 °F 85% 30.07 in 10.0 mi SW 10.4 mph - N/A   Clear
9:35 AM 70.2 °F - 64.4 °F 82% 30.07 in 10.0 mi SSW 9.2 mph - N/A   Scattered Clouds
9:55 AM 71.8 °F - 63.9 °F 76% 30.07 in 10.0 mi South 9.2 mph - N/A   Scattered Clouds
10:15 AM 74.3 °F - 61.3 °F 64% 30.07 in 10.0 mi SW 9.2 mph - N/A   Scattered Clouds
10:35 AM 75.4 °F - 60.8 °F 60% 30.07 in 10.0 mi SW 12.7 mph 17.3 mph N/A   Scattered Clouds
10:55 AM 76.5 °F - 60.6 °F 58% 30.07 in 10.0 mi SW 11.5 mph 16.1 mph N/A   Clear
11:15 AM 77.4 °F - 60.8 °F 57% 30.07 in 10.0 mi South 9.2 mph 17.3 mph N/A   Clear
11:35 AM 77.9 °F - 61.7 °F 57% 30.06 in 10.0 mi SSW 8.1 mph - N/A   Scattered Clouds
11:55 AM 77.9 °F - 61.3 °F 57% 30.06 in 10.0 mi SSW 9.2 mph 17.3 mph N/A   Scattered Clouds
12:15 PM 79.0 °F - 61.2 °F 54% 30.06 in 10.0 mi SSW 8.1 mph 17.3 mph N/A   Clear
12:35 PM 79.0 °F - 61.2 °F 54% 30.05 in 10.0 mi SSW 12.7 mph 17.3 mph N/A   Scattered Clouds
12:55 PM 79.7 °F - 60.3 °F 51% 30.04 in 10.0 mi South 11.5 mph - N/A   Scattered Clouds
1:15 PM 79.9 °F - 61.0 °F 52% 30.03 in 10.0 mi SSW 11.5 mph - N/A   Clear
1:35 PM 80.8 °F 81.6 °F 61.2 °F 51% 30.03 in 10.0 mi SSW 6.9 mph - N/A   Scattered Clouds
1:55 PM 81.7 °F 82.4 °F 61.5 °F 50% 30.03 in 10.0 mi South 10.4 mph 16.1 mph N/A   Scattered Clouds
2:15 PM 81.3 °F 82.2 °F 61.5 °F 51% 30.02 in 10.0 mi South 9.2 mph 18.4 mph N/A   Clear
2:35 PM 81.3 °F 81.8 °F 60.1 °F 48% 30.01 in 10.0 mi SW 10.4 mph - N/A   Scattered Clouds
2:55 PM 81.3 °F 81.6 °F 59.0 °F 46% 30.01 in 10.0 mi SSW 11.5 mph 18.4 mph N/A   Clear
3:15 PM 82.2 °F 82.6 °F 60.3 °F 47% 29.99 in 10.0 mi SSW 9.2 mph 16.1 mph N/A   Clear
3:35 PM 81.5 °F 81.8 °F 59.2 °F 47% 29.98 in 10.0 mi South 9.2 mph 16.1 mph N/A   Clear
3:55 PM 81.1 °F 81.4 °F 58.5 °F 46% 29.98 in 10.0 mi South 8.1 mph - N/A   Clear
4:15 PM 81.7 °F 81.8 °F 58.3 °F 45% 29.97 in 10.0 mi South 9.2 mph 18.4 mph N/A   Clear
4:35 PM 81.0 °F 81.1 °F 57.9 °F 45% 29.97 in 10.0 mi South 8.1 mph 17.3 mph N/A   Clear
4:55 PM 81.0 °F 81.1 °F 57.9 °F 45% 29.97 in 10.0 mi SSW 12.7 mph 18.4 mph N/A   Clear
5:15 PM 80.6 °F 80.9 °F 58.1 °F 46% 29.96 in 10.0 mi South 12.7 mph 17.3 mph N/A   Clear
5:35 PM 80.1 °F 80.6 °F 58.1 °F 47% 29.96 in 10.0 mi SSW 6.9 mph 20.7 mph N/A   Clear
5:55 PM 79.3 °F - 59.0 °F 50% 29.96 in 10.0 mi South 9.2 mph 16.1 mph N/A   Clear
6:15 PM 78.8 °F - 59.7 °F 52% 29.96 in 10.0 mi SSW 8.1 mph - N/A   Clear
6:35 PM 77.4 °F - 58.5 °F 52% 29.95 in 10.0 mi South 8.1 mph 17.3 mph N/A   Clear
6:55 PM 76.3 °F - 59.4 °F 56% 29.95 in 10.0 mi South 6.9 mph - N/A   Clear
7:15 PM 74.7 °F - 59.0 °F 58% 29.95 in 10.0 mi South 6.9 mph - N/A   Clear
7:35 PM 73.0 °F - 59.2 °F 62% 29.95 in 10.0 mi South 4.6 mph - N/A   Clear
7:55 PM 70.7 °F - 59.5 °F 68% 29.95 in 10.0 mi South 4.6 mph - N/A   Clear
8:15 PM 69.4 °F - 59.5 °F 71% 29.96 in 10.0 mi South 3.5 mph - N/A   Clear
8:35 PM 67.8 °F - 59.9 °F 76% 29.96 in 10.0 mi Calm Calm - N/A   Clear
8:55 PM 66.2 °F - 59.7 °F 80% 29.96 in 10.0 mi South 3.5 mph - N/A   Clear
9:15 PM 65.3 °F - 59.9 °F 83% 29.96 in 10.0 mi Calm Calm - N/A   Clear
9:35 PM 61.3 °F - 58.5 °F 90% 29.96 in 10.0 mi Calm Calm - N/A   Clear
9:55 PM 59.7 °F - 57.6 °F 93% 29.97 in 10.0 mi Calm Calm - N/A   Clear
10:15 PM 58.5 °F - 56.7 °F 94% 29.97 in 7.0 mi Calm Calm - N/A   Clear
10:35 PM 58.1 °F - 56.5 °F 94% 29.98 in 7.0 mi Calm Calm - N/A   Clear
10:55 PM 56.8 °F - 55.2 °F 94% 29.98 in 7.0 mi Calm Calm - N/A   Clear
11:15 PM 57.0 °F - 55.6 °F 95% 29.98 in 7.0 mi Calm Calm - N/A   Clear
11:35 PM 56.7 °F - 55.4 °F 96% 29.98 in 7.0 mi Calm Calm - N/A   Clear
11:55 PM 55.8 °F - 54.5 °F 96% 29.98 in 7.0 mi Calm Calm - N/A   Clear